Time,TemperatureF,DewpointF,PressureIn,WindDirection,WindDirectionDegrees,WindSpeedMPH,WindSpeedGustMPH,Humidity,HourlyPrecipIn,Conditions,Clouds,dailyrainin,SoftwareType,DateUTC
2013-11-12 00:00:00,34.1,29.2,30.06,WNW,288,0.0,0.0,82,0.00,,,0.00,Wunderground v.1.15,2013-11-12 05:00:00,
2013-11-12 00:05:00,34.1,29.2,30.06,WNW,288,0.0,0.0,82,0.00,,,0.00,Wunderground v.1.15,2013-11-12 05:05:00,
2013-11-12 00:10:00,34.1,29.2,30.06,WNW,288,0.0,0.0,82,0.00,,,0.00,Wunderground v.1.15,2013-11-12 05:10:00,
2013-11-12 00:15:00,34.1,29.5,30.06,WNW,288,0.0,0.0,83,0.00,,,0.00,Wunderground v.1.15,2013-11-12 05:15:00,
2013-11-12 00:20:00,34.1,29.5,30.05,WNW,288,0.0,0.0,83,0.00,,,0.00,Wunderground v.1.15,2013-11-12 05:20:00,
2013-11-12 00:25:00,34.1,29.5,30.05,WNW,288,0.0,0.0,83,0.00,,,0.00,Wunderground v.1.15,2013-11-12 05:25:00,
2013-11-12 00:30:00,34.2,29.9,30.05,WNW,288,0.0,0.0,84,0.00,,,0.00,Wunderground v.1.15,2013-11-12 05:30:00,
2013-11-12 00:35:00,34.4,30.1,30.05,WNW,288,0.0,0.0,84,0.00,,,0.00,Wunderground v.1.15,2013-11-12 05:35:00,
2013-11-12 00:40:00,34.5,30.2,30.05,WNW,288,0.0,0.0,84,0.00,,,0.00,Wunderground v.1.15,2013-11-12 05:40:00,
2013-11-12 00:45:00,34.5,30.2,30.04,WNW,288,0.0,0.0,84,0.00,,,0.00,Wunderground v.1.15,2013-11-12 05:45:00,
2013-11-12 00:50:00,34.6,30.3,30.04,WNW,288,0.0,0.0,84,0.00,,,0.00,Wunderground v.1.15,2013-11-12 05:50:00,
2013-11-12 01:00:00,34.7,30.4,30.03,WNW,288,0.0,0.0,84,0.00,,,0.00,Wunderground v.1.15,2013-11-12 06:00:00,
2013-11-12 01:05:00,34.7,30.4,30.03,WNW,288,0.0,0.0,84,0.00,,,0.00,Wunderground v.1.15,2013-11-12 06:05:00,
2013-11-12 01:10:00,34.8,30.5,30.03,WNW,288,0.0,0.0,84,0.00,,,0.00,Wunderground v.1.15,2013-11-12 06:10:00,
2013-11-12 01:15:00,34.9,30.6,30.03,WNW,288,0.0,0.0,84,0.00,,,0.00,Wunderground v.1.15,2013-11-12 06:15:00,
2013-11-12 01:20:00,35.1,30.8,30.03,WNW,288,0.0,0.0,84,0.00,,,0.00,Wunderground v.1.15,2013-11-12 06:20:00,
2013-11-12 01:25:00,35.3,30.9,30.03,WNW,288,0.0,0.0,84,0.00,,,0.00,Wunderground v.1.15,2013-11-12 06:25:00,
2013-11-12 01:30:00,35.4,31.0,30.03,WNW,288,0.0,0.0,84,0.00,,,0.00,Wunderground v.1.15,2013-11-12 06:30:00,
2013-11-12 01:35:00,35.5,31.1,30.03,WNW,288,0.0,0.0,84,0.00,,,0.00,Wunderground v.1.15,2013-11-12 06:35:00,
2013-11-12 01:40:00,35.5,31.1,30.02,WNW,288,0.0,0.0,84,0.00,,,0.00,Wunderground v.1.15,2013-11-12 06:40:00,
2013-11-12 01:45:00,35.5,30.8,30.02,WNW,288,0.0,0.0,83,0.00,,,0.00,Wunderground v.1.15,2013-11-12 06:45:00,
2013-11-12 01:55:00,35.4,30.8,30.02,WNW,288,0.0,0.0,83,0.00,,,0.00,Wunderground v.1.15,2013-11-12 06:55:00,
2013-11-12 02:00:00,35.4,30.8,30.02,WNW,288,0.0,0.0,83,0.00,,,0.00,Wunderground v.1.15,2013-11-12 07:00:00,
2013-11-12 02:05:00,35.3,30.7,30.02,WNW,288,0.0,0.0,83,0.00,,,0.00,Wunderground v.1.15,2013-11-12 07:05:00,
2013-11-12 02:10:00,35.2,30.6,30.02,WNW,288,0.0,0.0,83,0.00,,,0.00,Wunderground v.1.15,2013-11-12 07:10:00,
2013-11-12 02:15:00,35.1,30.8,30.02,WNW,288,0.0,0.0,84,0.00,,,0.00,Wunderground v.1.15,2013-11-12 07:15:00,
2013-11-12 02:20:00,35.1,30.8,30.02,WNW,288,0.0,0.0,84,0.00,,,0.00,Wunderground v.1.15,2013-11-12 07:20:00,
2013-11-12 02:30:00,35.2,31.1,30.01,WNW,288,0.0,0.0,85,0.00,,,0.00,Wunderground v.1.15,2013-11-12 07:30:00,
2013-11-12 02:35:00,35.2,31.1,30.01,WNW,288,0.0,0.0,85,0.00,,,0.00,Wunderground v.1.15,2013-11-12 07:35:00,
2013-11-12 02:40:00,35.3,31.2,30.01,WNW,288,0.0,0.0,85,0.00,,,0.00,Wunderground v.1.15,2013-11-12 07:40:00,
2013-11-12 02:45:00,35.3,31.2,30.01,WNW,288,0.0,0.0,85,0.00,,,0.00,Wunderground v.1.15,2013-11-12 07:45:00,
2013-11-12 02:50:00,35.3,31.2,30.01,WNW,288,0.0,0.0,85,0.00,,,0.00,Wunderground v.1.15,2013-11-12 07:50:00,
2013-11-12 03:00:00,35.5,31.1,30.01,WNW,288,0.0,0.0,84,0.00,,,0.00,Wunderground v.1.15,2013-11-12 08:00:00,
2013-11-12 03:05:00,35.6,31.8,30.01,WNW,288,0.0,0.0,86,0.00,,,0.00,Wunderground v.1.15,2013-11-12 08:05:00,
2013-11-12 03:10:00,35.8,32.0,30.00,WNW,288,0.0,0.0,86,0.00,,,0.00,Wunderground v.1.15,2013-11-12 08:10:00,
2013-11-12 03:15:00,36.0,32.2,30.00,WNW,288,0.0,0.0,86,0.00,,,0.00,Wunderground v.1.15,2013-11-12 08:15:00,
2013-11-12 03:20:00,36.1,32.3,30.00,WNW,288,0.0,0.0,86,0.00,,,0.00,Wunderground v.1.15,2013-11-12 08:20:00,
2013-11-12 03:25:00,36.1,32.3,30.00,WNW,288,0.0,0.0,86,0.00,,,0.00,Wunderground v.1.15,2013-11-12 08:25:00,
2013-11-12 03:35:00,36.2,32.4,29.99,WNW,288,0.0,0.0,86,0.00,,,0.00,Wunderground v.1.15,2013-11-12 08:35:00,
2013-11-12 03:40:00,36.4,32.3,29.99,WNW,288,0.0,0.0,85,0.00,,,0.00,Wunderground v.1.15,2013-11-12 08:40:00,
2013-11-12 03:45:00,36.4,32.3,29.99,WNW,288,0.0,0.0,85,0.00,,,0.00,Wunderground v.1.15,2013-11-12 08:45:00,
2013-11-12 03:50:00,36.5,32.4,29.99,WNW,288,0.0,0.0,85,0.00,,,0.00,Wunderground v.1.15,2013-11-12 08:50:00,
2013-11-12 03:55:00,36.6,32.5,29.98,WNW,288,0.0,0.0,85,0.00,,,0.00,Wunderground v.1.15,2013-11-12 08:55:00,
2013-11-12 04:05:00,36.7,32.6,29.98,WNW,288,0.0,0.0,85,0.00,,,0.00,Wunderground v.1.15,2013-11-12 09:05:00,
2013-11-12 04:10:00,36.6,32.5,29.98,WNW,288,0.0,0.0,85,0.00,,,0.00,Wunderground v.1.15,2013-11-12 09:10:00,
2013-11-12 04:15:00,36.6,32.5,29.98,WNW,288,0.0,0.0,85,0.00,,,0.00,Wunderground v.1.15,2013-11-12 09:15:00,
2013-11-12 04:20:00,36.7,32.6,29.98,WNW,288,0.0,0.0,85,0.00,,,0.00,Wunderground v.1.15,2013-11-12 09:20:00,
2013-11-12 04:25:00,36.8,32.7,29.98,WNW,288,0.0,0.0,85,0.00,,,0.00,Wunderground v.1.15,2013-11-12 09:25:00,
2013-11-12 04:30:00,36.8,32.7,29.98,WNW,288,0.0,0.0,85,0.00,,,0.00,Wunderground v.1.15,2013-11-12 09:30:00,
2013-11-12 04:40:00,36.9,32.8,29.98,WNW,288,0.0,0.0,85,0.00,,,0.00,Wunderground v.1.15,2013-11-12 09:40:00,
2013-11-12 04:45:00,37.0,32.9,29.98,WNW,288,0.0,0.0,85,0.00,,,0.00,Wunderground v.1.15,2013-11-12 09:45:00,
2013-11-12 04:50:00,37.0,32.9,29.97,WNW,288,0.0,0.0,85,0.00,,,0.00,Wunderground v.1.15,2013-11-12 09:50:00,
2013-11-12 04:55:00,37.0,32.6,29.97,WNW,288,0.0,0.0,84,0.00,,,0.00,Wunderground v.1.15,2013-11-12 09:55:00,
2013-11-12 05:00:00,37.0,32.6,29.96,WNW,288,0.0,0.0,84,0.00,,,0.00,Wunderground v.1.15,2013-11-12 10:00:00,
2013-11-12 05:10:00,37.1,33.0,29.97,WNW,288,0.0,0.0,85,0.00,,,0.00,Wunderground v.1.15,2013-11-12 10:10:00,
2013-11-12 05:15:00,37.3,33.2,29.97,WNW,288,0.0,0.0,85,0.00,,,0.00,Wunderground v.1.15,2013-11-12 10:15:00,
2013-11-12 05:20:00,37.4,33.3,29.97,WNW,288,0.0,0.0,85,0.00,,,0.00,Wunderground v.1.15,2013-11-12 10:20:00,
2013-11-12 05:25:00,37.4,33.3,29.97,WNW,288,0.0,0.0,85,0.00,,,0.00,Wunderground v.1.15,2013-11-12 10:25:00,
2013-11-12 05:30:00,37.4,33.3,29.97,WNW,288,0.0,0.0,85,0.00,,,0.00,Wunderground v.1.15,2013-11-12 10:30:00,
2013-11-12 05:35:00,37.4,33.0,29.97,WNW,288,0.0,0.0,84,0.00,,,0.00,Wunderground v.1.15,2013-11-12 10:35:00,
2013-11-12 05:45:00,37.4,33.0,29.97,WNW,288,0.0,0.0,84,0.00,,,0.00,Wunderground v.1.15,2013-11-12 10:45:00,
2013-11-12 05:50:00,37.4,33.0,29.97,WNW,288,0.0,0.0,84,0.00,,,0.00,Wunderground v.1.15,2013-11-12 10:50:00,
2013-11-12 05:55:00,37.2,32.5,29.97,WNW,288,0.0,0.0,83,0.00,,,0.00,Wunderground v.1.15,2013-11-12 10:55:00,
2013-11-12 06:00:00,37.0,32.3,29.97,WNW,288,0.0,0.0,83,0.00,,,0.00,Wunderground v.1.15,2013-11-12 11:00:00,
2013-11-12 06:05:00,36.9,32.2,29.97,WNW,293,0.0,0.0,83,0.00,,,0.00,Wunderground v.1.15,2013-11-12 11:05:00,
2013-11-12 06:15:00,36.6,32.5,29.96,WNW,294,0.0,0.0,85,0.00,,,0.00,Wunderground v.1.15,2013-11-12 11:15:00,
2013-11-12 06:20:00,36.4,32.3,29.97,WNW,292,0.0,0.0,85,0.00,,,0.00,Wunderground v.1.15,2013-11-12 11:20:00,
2013-11-12 06:25:00,36.3,32.5,29.97,WNW,292,0.0,0.0,86,0.00,,,0.00,Wunderground v.1.15,2013-11-12 11:25:00,
2013-11-12 06:30:00,36.1,32.3,29.97,ENE,71,0.0,0.0,86,0.00,,,0.00,Wunderground v.1.15,2013-11-12 11:30:00,
2013-11-12 06:35:00,36.0,31.9,29.97,ENE,71,0.0,0.0,85,0.00,,,0.00,Wunderground v.1.15,2013-11-12 11:35:00,
2013-11-12 06:40:00,36.0,31.9,29.97,ENE,71,0.0,0.0,85,0.00,,,0.00,Wunderground v.1.15,2013-11-12 11:40:00,
2013-11-12 06:50:00,35.8,31.7,29.97,ENE,71,0.0,0.0,85,0.00,,,0.00,Wunderground v.1.15,2013-11-12 11:50:00,
2013-11-12 06:55:00,35.7,31.9,29.97,ENE,71,0.0,0.0,86,0.00,,,0.00,Wunderground v.1.15,2013-11-12 11:55:00,
2013-11-12 07:00:00,35.7,31.9,29.98,ENE,71,0.0,0.0,86,0.00,,,0.00,Wunderground v.1.15,2013-11-12 12:00:00,
2013-11-12 07:05:00,35.6,31.8,29.97,ENE,71,0.0,0.0,86,0.00,,,0.00,Wunderground v.1.15,2013-11-12 12:05:00,
2013-11-12 07:10:00,35.7,31.6,29.98,NE,53,0.0,0.0,85,0.00,,,0.00,Wunderground v.1.15,2013-11-12 12:10:00,
2013-11-12 07:15:00,35.9,32.1,29.98,NE,51,0.0,0.0,86,0.00,,,0.00,Wunderground v.1.15,2013-11-12 12:15:00,
2013-11-12 07:20:00,36.0,31.9,29.98,NE,40,0.0,0.0,85,0.00,,,0.00,Wunderground v.1.15,2013-11-12 12:20:00,
2013-11-12 07:25:00,36.0,32.2,29.98,NNE,30,0.0,0.0,86,0.00,,,0.00,Wunderground v.1.15,2013-11-12 12:25:00,
2013-11-12 07:30:00,36.1,32.3,29.98,NNE,30,0.0,0.0,86,0.00,,,0.00,Wunderground v.1.15,2013-11-12 12:30:00,
2013-11-12 07:35:00,36.3,32.5,29.98,NNE,30,0.0,0.0,86,0.00,,,0.00,Wunderground v.1.15,2013-11-12 12:35:00,
2013-11-12 07:45:00,36.7,32.9,29.98,NNE,30,0.0,0.0,86,0.00,,,0.00,Wunderground v.1.15,2013-11-12 12:45:00,
2013-11-12 07:50:00,37.0,32.9,29.99,NNE,30,0.0,0.0,85,0.00,,,0.00,Wunderground v.1.15,2013-11-12 12:50:00,
2013-11-12 07:55:00,37.7,33.6,29.99,NNE,30,0.0,0.0,85,0.00,,,0.00,Wunderground v.1.15,2013-11-12 12:55:00,
2013-11-12 08:00:00,38.2,33.5,29.99,NNE,30,0.0,0.0,83,0.00,,,0.00,Wunderground v.1.15,2013-11-12 13:00:00,
2013-11-12 08:10:00,39.0,34.6,29.99,NNE,30,0.0,0.0,84,0.00,,,0.00,Wunderground v.1.15,2013-11-12 13:10:00,
2013-11-12 08:15:00,39.8,35.4,29.99,NNE,30,0.0,0.0,84,0.00,,,0.00,Wunderground v.1.15,2013-11-12 13:15:00,
2013-11-12 08:25:00,42.2,35.5,30.00,NNE,30,0.0,0.0,77,0.00,,,0.00,Wunderground v.1.15,2013-11-12 13:25:00,
2013-11-12 08:30:00,44.3,35.1,30.01,NNE,30,0.0,0.0,70,0.00,,,0.00,Wunderground v.1.15,2013-11-12 13:30:00,
2013-11-12 08:35:00,46.9,36.5,30.00,NNE,30,0.0,0.0,67,0.00,,,0.00,Wunderground v.1.15,2013-11-12 13:35:00,
2013-11-12 08:40:00,48.7,36.3,30.00,North,9,0.0,0.0,62,0.00,,,0.00,Wunderground v.1.15,2013-11-12 13:40:00,
2013-11-12 08:45:00,50.2,35.5,30.01,NNE,24,0.0,0.0,57,0.00,,,0.00,Wunderground v.1.15,2013-11-12 13:45:00,
2013-11-12 08:50:00,51.9,35.8,30.00,NNE,23,0.0,0.0,54,0.00,,,0.00,Wunderground v.1.15,2013-11-12 13:50:00,
2013-11-12 09:00:00,55.5,34.5,30.01,NE,36,0.0,1.0,45,0.00,,,0.00,Wunderground v.1.15,2013-11-12 14:00:00,
2013-11-12 09:10:00,57.5,34.0,30.00,NNE,29,0.0,0.0,41,0.00,,,0.00,Wunderground v.1.15,2013-11-12 14:10:00,
2013-11-12 09:20:00,58.5,34.2,30.01,NNE,12,0.0,1.0,40,0.00,,,0.00,Wunderground v.1.15,2013-11-12 14:20:00,
2013-11-12 09:25:00,58.9,34.6,30.01,East,84,0.0,1.0,40,0.00,,,0.00,Wunderground v.1.15,2013-11-12 14:25:00,
2013-11-12 09:35:00,59.2,34.2,30.02,NNE,18,1.0,2.0,39,0.00,,,0.00,Wunderground v.1.15,2013-11-12 14:35:00,
2013-11-12 09:40:00,59.2,34.2,30.02,NE,42,1.0,7.0,39,0.00,,,0.00,Wunderground v.1.15,2013-11-12 14:40:00,
2013-11-12 09:45:00,59.1,34.8,30.02,ENE,59,2.0,7.0,40,0.00,,,0.00,Wunderground v.1.15,2013-11-12 14:45:00,
2013-11-12 09:50:00,59.1,35.4,30.02,NNE,28,3.0,9.0,41,0.00,,,0.00,Wunderground v.1.15,2013-11-12 14:50:00,
2013-11-12 09:55:00,59.1,35.4,30.02,ENE,67,2.0,9.0,41,0.00,,,0.00,Wunderground v.1.15,2013-11-12 14:55:00,
2013-11-12 10:00:00,59.3,36.2,30.02,NNE,28,2.0,2.0,42,0.00,,,0.00,Wunderground v.1.15,2013-11-12 15:00:00,
2013-11-12 10:10:00,59.4,36.3,30.02,ENE,70,2.0,2.0,42,0.00,,,0.00,Wunderground v.1.15,2013-11-12 15:10:00,
2013-11-12 10:15:00,59.5,36.4,30.03,NNE,22,1.0,2.0,42,0.00,,,0.00,Wunderground v.1.15,2013-11-12 15:15:00,
2013-11-12 10:20:00,59.1,36.6,30.03,East,101,1.0,1.0,43,0.00,,,0.00,Wunderground v.1.15,2013-11-12 15:20:00,
2013-11-12 10:25:00,59.0,36.5,30.03,ESE,118,0.0,1.0,43,0.00,,,0.00,Wunderground v.1.15,2013-11-12 15:25:00,
2013-11-12 10:30:00,58.7,36.2,30.03,NE,49,0.0,1.0,43,0.00,,,0.00,Wunderground v.1.15,2013-11-12 15:30:00,
2013-11-12 10:35:00,58.3,35.9,30.03,North,9,1.0,8.0,43,0.00,,,0.00,Wunderground v.1.15,2013-11-12 15:35:00,
2013-11-12 10:40:00,58.0,36.2,30.03,NNW,345,4.0,8.0,44,0.00,,,0.00,Wunderground v.1.15,2013-11-12 15:40:00,
2013-11-12 10:45:00,58.0,37.3,30.03,North,355,7.0,8.0,46,0.00,,,0.00,Wunderground v.1.15,2013-11-12 15:45:00,
2013-11-12 10:50:00,57.9,37.2,30.03,North,355,9.0,11.0,46,0.00,,,0.00,Wunderground v.1.15,2013-11-12 15:50:00,
2013-11-12 10:55:00,57.5,37.9,30.04,NNW,327,9.0,11.0,48,0.00,,,0.00,Wunderground v.1.15,2013-11-12 15:55:00,
2013-11-12 11:00:00,57.7,38.7,30.03,NNW,336,9.0,13.0,49,0.00,,,0.00,Wunderground v.1.15,2013-11-12 16:00:00,
2013-11-12 11:10:00,59.3,39.6,30.04,NE,55,11.0,11.0,48,0.00,,,0.00,Wunderground v.1.15,2013-11-12 16:10:00,
2013-11-12 11:15:00,58.5,38.9,30.04,NNE,14,11.0,15.0,48,0.00,,,0.00,Wunderground v.1.15,2013-11-12 16:15:00,
2013-11-12 11:20:00,56.6,38.7,30.05,ENE,59,10.0,11.0,51,0.00,,,0.00,Wunderground v.1.15,2013-11-12 16:20:00,
2013-11-12 11:25:00,55.2,38.4,30.06,NE,40,10.0,11.0,53,0.00,,,0.00,Wunderground v.1.15,2013-11-12 16:25:00,
2013-11-12 11:30:00,54.3,38.0,30.06,NE,36,11.0,11.0,54,0.00,,,0.00,Wunderground v.1.15,2013-11-12 16:30:00,
2013-11-12 11:35:00,53.9,38.1,30.05,NE,53,10.0,11.0,55,0.00,,,0.00,Wunderground v.1.15,2013-11-12 16:35:00,
2013-11-12 11:40:00,53.6,37.8,30.06,NE,42,9.0,9.0,55,0.00,,,0.00,Wunderground v.1.15,2013-11-12 16:40:00,
2013-11-12 11:50:00,52.4,38.0,30.06,NNE,32,10.0,11.0,58,0.00,,,0.00,Wunderground v.1.15,2013-11-12 16:50:00,
2013-11-12 11:55:00,52.0,37.7,30.06,NE,52,10.0,11.0,58,0.00,,,0.00,Wunderground v.1.15,2013-11-12 16:55:00,
2013-11-12 12:00:00,51.9,37.1,30.07,East,79,11.0,11.0,57,0.00,,,0.00,Wunderground v.1.15,2013-11-12 17:00:00,
2013-11-12 12:10:00,51.9,36.7,30.08,NE,41,10.0,16.0,56,0.00,,,0.00,Wunderground v.1.15,2013-11-12 17:10:00,
2013-11-12 12:20:00,51.1,37.3,30.07,NE,39,11.0,11.0,59,0.00,,,0.00,Wunderground v.1.15,2013-11-12 17:20:00,
2013-11-12 12:30:00,52.4,37.6,30.07,ENE,63,9.0,9.0,57,0.00,,,0.00,Wunderground v.1.15,2013-11-12 17:30:00,
2013-11-12 12:35:00,53.3,37.5,30.06,ENE,72,9.0,11.0,55,0.00,,,0.00,Wunderground v.1.15,2013-11-12 17:35:00,
2013-11-12 12:40:00,53.3,36.6,30.06,East,79,9.0,9.0,53,0.00,,,0.00,Wunderground v.1.15,2013-11-12 17:40:00,
2013-11-12 12:45:00,52.0,35.4,30.07,NNE,17,10.0,12.0,53,0.00,,,0.00,Wunderground v.1.15,2013-11-12 17:45:00,
2013-11-12 12:50:00,50.6,35.0,30.06,East,84,11.0,11.0,55,0.00,,,0.00,Wunderground v.1.15,2013-11-12 17:50:00,
2013-11-12 13:00:00,49.3,34.3,30.05,NE,40,13.0,14.0,56,0.00,,,0.00,Wunderground v.1.15,2013-11-12 18:00:00,
2013-11-12 13:10:00,49.2,33.7,30.05,ENE,59,12.0,12.0,55,0.00,,,0.00,Wunderground v.1.15,2013-11-12 18:10:00,
2013-11-12 13:15:00,49.2,33.7,30.06,ENE,63,11.0,12.0,55,0.00,,,0.00,Wunderground v.1.15,2013-11-12 18:15:00,
2013-11-12 13:20:00,49.2,33.3,30.07,NE,50,9.0,12.0,54,0.00,,,0.00,Wunderground v.1.15,2013-11-12 18:20:00,
2013-11-12 13:25:00,49.1,33.2,30.08,ENE,59,8.0,12.0,54,0.00,,,0.00,Wunderground v.1.15,2013-11-12 18:25:00,
2013-11-12 13:30:00,49.0,33.1,30.08,NE,47,7.0,7.0,54,0.00,,,0.00,Wunderground v.1.15,2013-11-12 18:30:00,
2013-11-12 13:40:00,48.2,31.9,30.08,NE,54,10.0,13.0,53,0.00,,,0.00,Wunderground v.1.15,2013-11-12 18:40:00,
2013-11-12 13:45:00,47.9,32.5,30.08,ENE,58,11.0,16.0,55,0.00,,,0.00,Wunderground v.1.15,2013-11-12 18:45:00,
2013-11-12 13:50:00,47.5,32.1,30.08,East,80,10.0,12.0,55,0.00,,,0.00,Wunderground v.1.15,2013-11-12 18:50:00,
2013-11-12 13:55:00,47.2,31.4,30.09,ESE,106,10.0,12.0,54,0.00,,,0.00,Wunderground v.1.15,2013-11-12 18:55:00,
2013-11-12 14:00:00,47.0,31.7,30.10,NE,54,9.0,10.0,55,0.00,,,0.00,Wunderground v.1.15,2013-11-12 19:00:00,
2013-11-12 14:10:00,46.2,31.8,30.11,NNE,30,9.0,9.0,57,0.00,,,0.00,Wunderground v.1.15,2013-11-12 19:10:00,
2013-11-12 14:15:00,45.6,31.2,30.11,ENE,73,10.0,10.0,57,0.00,,,0.00,Wunderground v.1.15,2013-11-12 19:15:00,
2013-11-12 14:30:00,44.1,30.7,30.12,ESE,102,9.0,9.0,59,0.00,,,0.00,Wunderground v.1.15,2013-11-12 19:30:00,
2013-11-12 14:40:00,43.3,29.9,30.12,ENE,58,9.0,9.0,59,0.00,,,0.00,Wunderground v.1.15,2013-11-12 19:40:00,
2013-11-12 14:45:00,43.1,29.7,30.12,NE,40,7.0,9.0,59,0.00,,,0.00,Wunderground v.1.15,2013-11-12 19:45:00,
2013-11-12 14:50:00,42.9,30.0,30.12,NE,53,6.0,6.0,60,0.00,,,0.00,Wunderground v.1.15,2013-11-12 19:50:00,
2013-11-12 15:05:00,41.8,28.5,30.13,ENE,65,10.0,13.0,59,0.00,,,0.00,Wunderground v.1.15,2013-11-12 20:05:00,
2013-11-12 15:15:00,41.4,27.7,30.13,NE,55,10.0,10.0,58,0.00,,,0.00,Wunderground v.1.15,2013-11-12 20:15:00,
2013-11-12 15:20:00,41.2,27.9,30.14,NE,40,9.0,10.0,59,0.00,,,0.00,Wunderground v.1.15,2013-11-12 20:20:00,
2013-11-12 15:25:00,41.0,27.8,30.14,NNE,30,9.0,10.0,59,0.00,,,0.00,Wunderground v.1.15,2013-11-12 20:25:00,
2013-11-12 15:30:00,40.9,27.7,30.15,ENE,59,9.0,9.0,59,0.00,,,0.00,Wunderground v.1.15,2013-11-12 20:30:00,
2013-11-12 15:35:00,40.8,27.6,30.15,NNE,32,8.0,10.0,59,0.00,,,0.00,Wunderground v.1.15,2013-11-12 20:35:00,
2013-11-12 15:45:00,40.5,27.3,30.14,ENE,75,10.0,11.0,59,0.00,,,0.00,Wunderground v.1.15,2013-11-12 20:45:00,
2013-11-12 15:55:00,40.2,27.4,30.17,ENE,70,10.0,10.0,60,0.00,,,0.00,Wunderground v.1.15,2013-11-12 20:55:00,
2013-11-12 16:00:00,40.1,27.3,30.17,ENE,68,8.0,8.0,60,0.00,,,0.00,Wunderground v.1.15,2013-11-12 21:00:00,
2013-11-12 16:15:00,39.7,26.9,30.17,NE,48,9.0,9.0,60,0.00,,,0.00,Wunderground v.1.15,2013-11-12 21:15:00,
2013-11-12 16:25:00,39.2,26.1,30.19,NNE,31,10.0,12.0,59,0.00,,,0.00,Wunderground v.1.15,2013-11-12 21:25:00,
2013-11-12 16:30:00,39.0,25.9,30.19,ENE,74,11.0,13.0,59,0.00,,,0.00,Wunderground v.1.15,2013-11-12 21:30:00,
2013-11-12 16:35:00,38.9,25.4,30.20,NE,53,11.0,13.0,58,0.00,,,0.00,Wunderground v.1.15,2013-11-12 21:35:00,
2013-11-12 16:40:00,38.7,25.2,30.20,ENE,76,11.0,16.0,58,0.00,,,0.00,Wunderground v.1.15,2013-11-12 21:40:00,
2013-11-12 16:45:00,38.6,25.1,30.20,NE,53,10.0,16.0,58,0.00,,,0.00,Wunderground v.1.15,2013-11-12 21:45:00,
2013-11-12 16:50:00,38.5,25.0,30.20,NE,48,9.0,12.0,58,0.00,,,0.00,Wunderground v.1.15,2013-11-12 21:50:00,
2013-11-12 17:00:00,38.3,24.8,30.22,NE,55,9.0,9.0,58,0.00,,,0.00,Wunderground v.1.15,2013-11-12 22:00:00,
2013-11-12 17:10:00,37.9,24.0,30.23,ENE,71,9.0,11.0,57,0.00,,,0.00,Wunderground v.1.15,2013-11-12 22:10:00,
2013-11-12 17:15:00,37.7,24.2,30.23,ENE,60,11.0,11.0,58,0.00,,,0.00,Wunderground v.1.15,2013-11-12 22:15:00,
2013-11-12 17:20:00,37.5,24.1,30.23,ENE,61,10.0,10.0,58,0.00,,,0.00,Wunderground v.1.15,2013-11-12 22:20:00,
2013-11-12 17:30:00,37.2,24.2,30.24,ENE,70,10.0,10.0,59,0.00,,,0.00,Wunderground v.1.15,2013-11-12 22:30:00,
2013-11-12 17:35:00,37.0,24.0,30.25,ENE,77,9.0,10.0,59,0.00,,,0.00,Wunderground v.1.15,2013-11-12 22:35:00,
2013-11-12 17:40:00,36.8,23.4,30.25,NE,50,9.0,9.0,58,0.00,,,0.00,Wunderground v.1.15,2013-11-12 22:40:00,
2013-11-12 17:45:00,36.5,22.7,30.26,ENE,78,10.0,10.0,57,0.00,,,0.00,Wunderground v.1.15,2013-11-12 22:45:00,
2013-11-12 17:50:00,36.4,21.8,30.26,East,94,11.0,12.0,55,0.00,,,0.00,Wunderground v.1.15,2013-11-12 22:50:00,
2013-11-12 17:55:00,36.2,21.1,30.26,ENE,57,11.0,12.0,54,0.00,,,0.00,Wunderground v.1.15,2013-11-12 22:55:00,
2013-11-12 18:05:00,35.8,19.9,30.28,ENE,58,12.0,20.0,52,0.00,,,0.00,Wunderground v.1.15,2013-11-12 23:05:00,
2013-11-12 18:10:00,35.7,19.3,30.28,ENE,75,12.0,12.0,51,0.00,,,0.00,Wunderground v.1.15,2013-11-12 23:10:00,
2013-11-12 18:15:00,35.5,19.1,30.28,ENE,73,11.0,20.0,51,0.00,,,0.00,Wunderground v.1.15,2013-11-12 23:15:00,
2013-11-12 18:20:00,35.3,19.0,30.28,ENE,71,10.0,20.0,51,0.00,,,0.00,Wunderground v.1.15,2013-11-12 23:20:00,
2013-11-12 18:25:00,35.2,18.9,30.28,East,86,10.0,20.0,51,0.00,,,0.00,Wunderground v.1.15,2013-11-12 23:25:00,
2013-11-12 18:35:00,34.8,18.9,30.29,NE,35,10.0,20.0,52,0.00,,,0.00,Wunderground v.1.15,2013-11-12 23:35:00,
2013-11-12 18:40:00,34.6,18.8,30.29,ENE,74,8.0,8.0,52,0.00,,,0.00,Wunderground v.1.15,2013-11-12 23:40:00,
2013-11-12 18:45:00,34.5,18.7,30.30,NNE,33,7.0,9.0,52,0.00,,,0.00,Wunderground v.1.15,2013-11-12 23:45:00,
2013-11-12 18:50:00,34.3,18.5,30.30,NNE,32,8.0,20.0,52,0.00,,,0.00,Wunderground v.1.15,2013-11-12 23:50:00,
2013-11-12 18:55:00,34.2,18.4,30.30,NE,51,10.0,20.0,52,0.00,,,0.00,Wunderground v.1.15,2013-11-12 23:55:00,
2013-11-12 19:00:00,34.1,17.8,30.30,East,79,10.0,20.0,51,0.00,,,0.00,Wunderground v.1.15,2013-11-13 00:00:00,
2013-11-12 19:10:00,33.8,18.5,30.30,ENE,70,8.0,8.0,53,0.00,,,0.00,Wunderground v.1.15,2013-11-13 00:10:00,
2013-11-12 19:15:00,33.5,17.3,30.30,ENE,70,6.0,20.0,51,0.00,,,0.00,Wunderground v.1.15,2013-11-13 00:15:00,
2013-11-12 19:20:00,33.3,17.1,30.30,ENE,71,6.0,6.0,51,0.00,,,0.00,Wunderground v.1.15,2013-11-13 00:20:00,
2013-11-12 19:25:00,33.0,17.3,30.31,ENE,72,7.0,9.0,52,0.00,,,0.00,Wunderground v.1.15,2013-11-13 00:25:00,
2013-11-12 19:30:00,32.8,17.1,30.31,ENE,72,7.0,7.0,52,0.00,,,0.00,Wunderground v.1.15,2013-11-13 00:30:00,
2013-11-12 19:40:00,32.3,17.1,30.32,ENE,61,7.0,20.0,53,0.00,,,0.00,Wunderground v.1.15,2013-11-13 00:40:00,
2013-11-12 19:45:00,32.0,16.8,30.32,ENE,71,6.0,20.0,53,0.00,,,0.00,Wunderground v.1.15,2013-11-13 00:45:00,
2013-11-12 19:50:00,31.9,16.7,30.32,NE,35,6.0,6.0,53,0.00,,,0.00,Wunderground v.1.15,2013-11-13 00:50:00,
2013-11-12 19:55:00,31.6,16.4,30.32,ENE,58,5.0,20.0,53,0.00,,,0.00,Wunderground v.1.15,2013-11-13 00:55:00,
2013-11-12 20:00:00,31.5,16.3,30.32,NE,34,5.0,20.0,53,0.00,,,0.00,Wunderground v.1.15,2013-11-13 01:00:00,
2013-11-12 20:05:00,31.4,16.2,30.32,ENE,66,6.0,20.0,53,0.00,,,0.00,Wunderground v.1.15,2013-11-13 01:05:00,
2013-11-12 20:15:00,31.2,16.0,30.33,East,80,3.0,20.0,53,0.00,,,0.00,Wunderground v.1.15,2013-11-13 01:15:00,
2013-11-12 20:20:00,31.0,15.8,30.34,East,88,4.0,4.0,53,0.00,,,0.00,Wunderground v.1.15,2013-11-13 01:20:00,
2013-11-12 20:25:00,30.9,15.8,30.35,ENE,63,4.0,9.0,53,0.00,,,0.00,Wunderground v.1.15,2013-11-13 01:25:00,
2013-11-12 20:30:00,31.0,15.4,30.35,East,88,6.0,6.0,52,0.00,,,0.00,Wunderground v.1.15,2013-11-13 01:30:00,
2013-11-12 20:35:00,31.1,15.9,30.35,ENE,62,6.0,20.0,53,0.00,,,0.00,Wunderground v.1.15,2013-11-13 01:35:00,
2013-11-12 20:45:00,31.0,15.4,30.35,NE,51,6.0,20.0,52,0.00,,,0.00,Wunderground v.1.15,2013-11-13 01:45:00,
2013-11-12 20:50:00,30.9,15.8,30.35,ENE,78,6.0,6.0,53,0.00,,,0.00,Wunderground v.1.15,2013-11-13 01:50:00,
2013-11-12 20:55:00,30.9,15.3,30.36,ENE,61,5.0,20.0,52,0.00,,,0.00,Wunderground v.1.15,2013-11-13 01:55:00,
2013-11-12 21:00:00,30.8,15.2,30.36,ENE,63,5.0,5.0,52,0.00,,,0.00,Wunderground v.1.15,2013-11-13 02:00:00,
2013-11-12 21:05:00,30.7,15.6,30.36,NE,55,4.0,8.0,53,0.00,,,0.00,Wunderground v.1.15,2013-11-13 02:05:00,
2013-11-12 21:10:00,30.7,16.0,30.36,ENE,76,5.0,5.0,54,0.00,,,0.00,Wunderground v.1.15,2013-11-13 02:10:00,
2013-11-12 21:20:00,30.5,15.8,30.37,ENE,60,4.0,20.0,54,0.00,,,0.00,Wunderground v.1.15,2013-11-13 02:20:00,
2013-11-12 21:25:00,30.5,15.8,30.38,ENE,57,5.0,20.0,54,0.00,,,0.00,Wunderground v.1.15,2013-11-13 02:25:00,
2013-11-12 21:30:00,30.5,15.8,30.37,ENE,68,5.0,5.0,54,0.00,,,0.00,Wunderground v.1.15,2013-11-13 02:30:00,
2013-11-12 21:35:00,30.3,16.0,30.38,ENE,64,4.0,20.0,55,0.00,,,0.00,Wunderground v.1.15,2013-11-13 02:35:00,
2013-11-12 21:40:00,30.1,16.3,30.38,ENE,64,2.0,2.0,56,0.00,,,0.00,Wunderground v.1.15,2013-11-13 02:40:00,
2013-11-12 21:50:00,29.2,15.8,30.38,ENE,64,2.0,20.0,57,0.00,,,0.00,Wunderground v.1.15,2013-11-13 02:50:00,
2013-11-12 21:55:00,29.0,16.1,30.37,ENE,64,3.0,20.0,58,0.00,,,0.00,Wunderground v.1.15,2013-11-13 02:55:00,
2013-11-12 22:00:00,28.8,16.3,30.37,ENE,64,4.0,4.0,59,0.00,,,0.00,Wunderground v.1.15,2013-11-13 03:00:00,
2013-11-12 22:05:00,28.4,15.9,30.37,ENE,64,4.0,20.0,59,0.00,,,0.00,Wunderground v.1.15,2013-11-13 03:05:00,
2013-11-12 22:10:00,28.7,15.8,30.37,ENE,59,4.0,20.0,58,0.00,,,0.00,Wunderground v.1.15,2013-11-13 03:10:00,
2013-11-12 22:15:00,29.1,16.1,30.37,NE,51,5.0,20.0,58,0.00,,,0.00,Wunderground v.1.15,2013-11-13 03:15:00,
2013-11-12 22:25:00,29.5,16.1,30.37,ENE,68,5.0,20.0,57,0.00,,,0.00,Wunderground v.1.15,2013-11-13 03:25:00,
2013-11-12 22:30:00,29.7,16.3,30.37,ENE,74,5.0,20.0,57,0.00,,,0.00,Wunderground v.1.15,2013-11-13 03:30:00,
2013-11-12 22:35:00,29.8,18.0,30.37,ENE,61,5.0,20.0,61,0.00,,,0.00,Wunderground v.1.15,2013-11-13 03:35:00,
2013-11-12 22:40:00,30.0,16.2,30.37,NE,54,6.0,6.0,56,0.00,,,0.00,Wunderground v.1.15,2013-11-13 03:40:00,
2013-11-12 22:45:00,30.3,16.0,30.38,ENE,73,6.0,20.0,55,0.00,,,0.00,Wunderground v.1.15,2013-11-13 03:45:00,
2013-11-12 22:55:00,30.1,15.9,30.39,ENE,68,4.0,20.0,55,0.00,,,0.00,Wunderground v.1.15,2013-11-13 03:55:00,
2013-11-12 23:00:00,30.0,15.8,30.39,ENE,78,4.0,20.0,55,0.00,,,0.00,Wunderground v.1.15,2013-11-13 04:00:00,
2013-11-12 23:05:00,29.9,16.1,30.38,ENE,57,4.0,20.0,56,0.00,,,0.00,Wunderground v.1.15,2013-11-13 04:05:00,
2013-11-12 23:10:00,29.8,16.0,30.38,NE,53,4.0,4.0,56,0.00,,,0.00,Wunderground v.1.15,2013-11-13 04:10:00,
2013-11-12 23:15:00,29.6,15.8,30.38,East,95,3.0,20.0,56,0.00,,,0.00,Wunderground v.1.15,2013-11-13 04:15:00,
2013-11-12 23:20:00,29.4,16.0,30.39,East,95,2.0,2.0,57,0.00,,,0.00,Wunderground v.1.15,2013-11-13 04:20:00,
2013-11-12 23:30:00,28.8,16.3,30.38,East,95,0.0,20.0,59,0.00,,,0.00,Wunderground v.1.15,2013-11-13 04:30:00,
2013-11-12 23:35:00,28.3,16.2,30.38,East,95,0.0,20.0,60,0.00,,,0.00,Wunderground v.1.15,2013-11-13 04:35:00,
2013-11-12 23:40:00,27.8,15.7,30.38,East,95,0.0,20.0,60,0.00,,,0.00,Wunderground v.1.15,2013-11-13 04:40:00,
2013-11-12 23:45:00,27.4,15.7,30.38,East,95,0.0,20.0,61,0.00,,,0.00,Wunderground v.1.15,2013-11-13 04:45:00,
2013-11-12 23:50:00,27.0,15.7,30.38,East,95,0.0,20.0,62,0.00,,,0.00,Wunderground v.1.15,2013-11-13 04:50:00,